Погода в Малинках

Россия / Липецкая область     53°19′30″N   38°59′43″E
темп.,
°C
ветер,
м/с
пор.,
м/с
влажн.,
%
обл.,
%
осадки,
мм/ч
давл.,
гПа
погр.,
м
7 мая, пт
пт700:00+9сз4793100 3.2 1010515
03:00+7сз3591100 10.3 1011296
06:00+7ссз1191100 1.9 1011190
09:00+10зсз347365 2.0 1012852
12:00+13зсз45465 0.0 10142128
15:00+14з343925 0.0 10142336
18:00+14юз235199 0.0 1014584
21:00+10ю226128 0.0 101523
8 мая, сб
сб800:00+8ююв486710 0.0 1015123
03:00+7ююв51378100 0.0 1014298
06:00+8ю71680100 0.0 1013697
09:00+8ююв91888100 2.2 1010749
12:00+10ююв81683100 0.8 1008789
15:00+11ююв81594100 6.1 10051020
18:00+11ююз81393100 2.7 1005719
21:00+10юз51096100 3.0 1005493
9 мая, вс
вс900:00+9юз51094100 0.1 1006463
03:00+6зюз71193100 0.1 1007483
06:00+3сз91696100 0.1 1011738
09:00+7сз81275100 0.1 10131111
12:00+8сз81069100 0.1 10161369
15:00+8ссз71069100 0.1 10181451
18:00+8сз696894 0.0 1020994
21:00+6сз34775 0.0 102361
10 мая, пн
пн1000:00+4ссз512800 0.0 1024252
03:00+3ссз411820 0.0 1026221
06:00+4с512780 0.0 1028289
09:00+10с711595 0.0 10281109
12:00+12ссв79485 0.0 10291589
15:00+14ссв710485 0.0 10281637
18:00+13ссв69580 0.0 10281024
21:00+8ссв410785 0.0 1029188
11 мая, вт
вт1100:00+7св513735 0.0 1029272
03:00+6ссв614705 0.0 1029325
06:00+6св616723 0.0 1029427
09:00+11св913590 0.0 1029683
12:00+15всв795529 0.0 1028916
15:00+17всв795797 0.0 1027972
18:00+16св5966100 0.0 1027629
21:00+12св512775 0.0 1027279